Regional Weather Roundup
Issued by NWS Grand Forks, ND

Home | Current Version | Previous Version | Graphics & Text | Print | Product List | Glossary On
Versions: 1 2 3 4 5 6 7 8 9 10 11 12 13 14 15 16 17 18 19 20 21 22 23 24 25 26 27 28 29 30 31 32 33 34 35 36 37 38 39 40 41 42 43 44 45 46 47 48 49 50
000
ASUS43 KFGF 311831
RWRFGF
PRAIRIE TO PINES  WEATHER ROUNDUP
NATIONAL WEATHER SERVICE EASTERN NORTH DAKOTA/GRAND FORKS ND
100 PM CDT MON AUG 31 2015

 **SATELLITE DATA USED TO AUGMENT SKY COVER AT AUTOMATED STATIONS**
 *****  WEATHER ACROSS EASTERN NORTH DAKOTA  *****

CITY           SKY/WX    TMP DP  RH WIND       PRES   REMARKS
GRAND FORKS    PTSUNNY   80  63  55 N14       29.75R
6HR MIN TEMP:  64; 6HR MAX TEMP:  80;

GRAND FRKS AFB PTSUNNY   78  63  59 N17       29.77R
GRAND FRKS NWS   N/A     79 N/A N/A N6          N/A
DEVILS LAKE    MOSUNNY   75  54  46 W20       29.80R
6HR MIN TEMP:  64; 6HR MAX TEMP:  75;

FARGO          PTSUNNY   81  65  58 W12       29.76R
WAHPETON ARPT  PTCLDY    82  59  44 W14       29.77S
$$

 ***** WEATHER ACROSS CENTRAL AND WESTERN NORTH DAKOTA  *****

CITY           SKY/WX    TMP DP  RH WIND       PRES   REMARKS
BISMARCK       PTSUNNY   76  52  43 NW12      29.90R
6HR MIN TEMP:  68; 6HR MAX TEMP:  77;

MINOT          SUNNY     74  43  32 W20G26    29.84S
6HR MIN TEMP:  61; 6HR MAX TEMP:  74; 6HR PCP: TRACE;

JAMESTOWN      PTSUNNY   75  60  59 N12G20    29.83R
6HR MIN TEMP:  66; 6HR MAX TEMP:  75; 6HR PCP: TRACE;

MINOT AFB      SUNNY     74  43  32 W14G28    29.81F
GARRISON         N/A     73  47  39 W17G24    29.88S
WILLISTON      SUNNY     74  40  29 W15G23    29.87F
DICKINSON      SUNNY     74  41  30 W15       29.93F
6HR MIN TEMP:  57; 6HR MAX TEMP:  74;

HETTINGER      PTSUNNY   75  43  31 W13       29.97S
6HR MIN TEMP:  59; 6HR MAX TEMP:  75;

$$

 *****  OTHER AIRPORT OBSERVATIONS IN OUR AREA  *****

CITY           SKY/WX    TMP DP  RH WIND       PRES   REMARKS
WALHALLA       FAIR      77  59  53 MISG      29.74S
GRAFTON AIRPOR FAIR      77  63  61 NW7       29.76S
VALLEY CITY AR FAIR      77  63  61 N18       29.81R
CANDO          FAIR      77  50  38 NW18G28   29.80F
CAVALIER APRT  FAIR      75  63  64 CALM      29.74S
GWINNER        MOCLDY    81  66  61 N9        29.80R
SHEYENNE NWR     N/A     79  66  64 NW8       29.95S
ROLLA            N/A     73  50  43 W16G26    29.80F
 ***** THE ABOVE OBSERVATIONS ARE NON NWS ARE NOT QUALITY
       CONTROLLED AND MAY MIS-REPORT RAIN FOR SNOW...
$$

  *****  WEATHER ACROSS NORTHERN MINNESOTA  *****

CITY           SKY/WX    TMP DP  RH WIND       PRES   REMARKS
FLAG ISLAND    CLOUDY    68  63  83 SW14G21   29.70S HAZE
WARROAD        CLOUDY    68  64  88 SW7       29.73S
ROSEAU         PTSUNNY   73  66  78 SW8       29.73S
HALLOCK        PTSUNNY   75  63  64 NW10G17   29.74S
THF RVR FALLS  CLOUDY   N/A N/A N/A W5        29.76R
BAUDETTE       PTSUNNY   77  63  61 SW12G20   29.71R
6HR MIN TEMP:  63; 6HR MAX TEMP:  79;

WASKISH        SUNNY     79  64  61 SW10      29.74S
CROOKSTON      CLOUDY    75  64  69 N9        29.76R
STEPHEN NDAWN    N/A     77  64  65 NW16        N/A
GREENBUSH NDAW   N/A     79  64  61 NW12        N/A
$$
  *****  WEATHER ACROSS CENTRAL AND WEST MINNESOTA  *****

CITY           SKY/WX    TMP DP  RH WIND       PRES   REMARKS
FOSSTON        CLOUDY    75  61  60 SW12      29.78R
BEMIDJI        SUNNY     82  60  48 SW16G23   29.76S
PARK RAPIDS    SUNNY     85  58  39 SW16G25   29.79F
6HR MIN TEMP:  64; 6HR MAX TEMP:  85;

ELBOW LAKE     FAIR      80  66  61 S16       29.80S
6HR MIN TEMP:  64; 6HR MAX TEMP:  80;

WADENA         SUNNY     81  63  54 S16G23    29.80F
DETROIT LAKES  FAIR      79  63  57 SW13      29.80S
MOORHEAD       PTSUNNY   81  64  57 W12       29.78R
FERGUS FALLS   MOSUNNY   82  66  57 S14       29.77F
MORRIS MN      SUNNY     82  66  57 S20       29.81S
STAPLES        SUNNY     81  63  54 S15       29.82S
$$
  *****  WEATHER ELSEWHERE ACROSS MINNESOTA  *****

CITY           SKY/WX    TMP DP  RH WIND       PRES   REMARKS
DULUTH         SUNNY     78  64  61 SW20      29.88F
6HR MIN TEMP:  64; 6HR MAX TEMP:  78;

INTRNTL FALLS  SUNNY     80  62  54 S13G24    29.72F
6HR MIN TEMP:  64; 6HR MAX TEMP:  80;

ELY            MOSUNNY   81  57  44 SW12      29.82F
CLOQUET        SUNNY     79  64  61 S12G20    29.87F
WHEATON        SUNNY     81  63  54 SW16G23   29.80S
BRAINERD       SUNNY     80  64  58 S18G26    29.84F
6HR MIN TEMP:  63; 6HR MAX TEMP:  80;

HIBBING        MOSUNNY   80  62  54 S10G21    29.82F
6HR MIN TEMP:  58; 6HR MAX TEMP:  80;

ALEXANDRIA     SUNNY     80  67  64 S21G26    29.85S
6HR MIN TEMP:  65; 6HR MAX TEMP:  80;

SAINT CLOUD    SUNNY     79  69  71 S17G24    29.87F
6HR MIN TEMP:  64; 6HR MAX TEMP:  80;

MINNEAPOLIS    PTSUNNY   81  69  67 S13G21    29.92F
6HR MIN TEMP:  66; 6HR MAX TEMP:  81;

$$

  *****  WEATHER ACROSS SOUTH DAKOTA  *****

CITY           SKY/WX    TMP DP  RH WIND       PRES   REMARKS
SIOUX FALLS    SUNNY     79  69  71 S21G26    29.88F
6HR MIN TEMP:  65; 6HR MAX TEMP:  79;

BROOKINGS      SUNNY     79  66  65 S15G23    29.87F
WATERTOWN      SUNNY     81  65  58 SW18G29   29.82F
6HR MIN TEMP:  64; 6HR MAX TEMP:  81;

HURON          SUNNY     85  63  47 SW8       29.81R
6HR MIN TEMP:  66; 6HR MAX TEMP:  85;

SISSETON         N/A     85  62  46 W13       29.78F
ABERDEEN       PTSUNNY   77  63  61 NW9       29.84R
6HR MIN TEMP:  67; 6HR MAX TEMP:  78;

MITCHELL       SUNNY     84  66  54 S16       29.83F
PIERRE         CLOUDY    77  59  53 NW23      29.91R
6HR MIN TEMP:  69; 6HR MAX TEMP:  80;

MOBRIDGE       CLOUDY    74  61  63 N17       29.85F
RAPID CITY     CLOUDY    70  55  59 N12       30.02R
6HR MIN TEMP:  64; 6HR MAX TEMP:  73;

$$

  *****  SOME WEATHER IN NEARBY STATES *****

CITY           SKY/WX    TMP DP  RH WIND       PRES   REMARKS
GLASGOW MT     SUNNY     71  40  32 W15       29.87F
6HR MIN TEMP:  51; 6HR MAX TEMP:  71;

GREAT FALLS MT MOSUNNY   69  33  26 SW25G35   29.93F
6HR MIN TEMP:  52; 6HR MAX TEMP:  69;

CHEYENNE WY    MOSUNNY   82  43  25 W5        30.16F
6HR MIN TEMP:  65; 6HR MAX TEMP:  82;

SCOTTSBLUFF NE PTSUNNY   85  49  28 NW6       30.02F
6HR MIN TEMP:  69; 6HR MAX TEMP:  85; 6HR PCP: TRACE;

OMAHA NE       MOSUNNY   83  70  64 S12       29.95F
6HR MIN TEMP:  65; 6HR MAX TEMP:  83;

DES MOINES IA  MOSUNNY   85  71  63 S12       29.97F HX  90
6HR MIN TEMP:  68; 6HR MAX TEMP:  86;

DAVENPORT IA   MOSUNNY   84  70  62 S7        30.04F
6HR MIN TEMP:  63; 6HR MAX TEMP:  84;

CHICAGO IL     MOSUNNY   83  67  58 CALM      30.06F
6HR MIN TEMP:  62; 6HR MAX TEMP:  83;

EAU CLAIRE WI  CLOUDY    75  67  76 S10       29.98F
6HR MIN TEMP:  63; 6HR MAX TEMP:  75;

LA CROSSE WI   SUNNY     80  69  69 S10       29.99F
6HR MIN TEMP:  65; 6HR MAX TEMP:  80;

$$

  *****  SOME NATIONAL WEATHER *****

CITY           SKY/WX    TMP DP  RH WIND       PRES   REMARKS
LA GUARDIA NY  PTSUNNY   89  63  41 W10       29.99F HX  90
6HR MIN TEMP:  78; 6HR MAX TEMP:  89;

RALEIGH NC     CLOUDY    72  68  87 NE6       30.12F
6HR MIN TEMP:  68; 6HR MAX TEMP:  72; 6HR PCP:  0.31;

ATLANTA GA     PTSUNNY   77  69  76 N6        30.14F
6HR MIN TEMP:  68; 6HR MAX TEMP:  77; 6HR PCP:  0.03;

NEW ORLEANS LA PTSUNNY   90  67  46 NE9       30.06F HX  93
6HR MIN TEMP:  76; 6HR MAX TEMP:  90;

OKLAHOMA CITY  MOSUNNY   90  64  42 S15G22    30.00F HX  91
6HR MIN TEMP:  67; 6HR MAX TEMP:  91;

ALBUQUERQUE NM MOSUNNY   83  48  29 NW7       30.19F
6HR MIN TEMP:  66; 6HR MAX TEMP:  84;

SALT LAKE CITY MOSUNNY   79  33  19 CALM      30.08F
6HR MIN TEMP:  62; 6HR MAX TEMP:  79;

LOS ANGELES CA MOSUNNY   75  63  66 SE6       29.93R
6HR MIN TEMP:  68; 6HR MAX TEMP:  76;




USA.gov is the U.S. government's official web portal to all federal, state and local government web resources and services.